METEOR-M2 4

Last updated on Thu Nov 21 2024 00:02:20 GMT+0000 (Coordinated Universal Time)

1 59051U 24039A 24325.59393557 .00000108 00000+0 68163-4 0 9996 2 59051 98.6212 283.8025 0007803 38.0596 322.1132 14.22303315 37724
UTC large
Height (km)
Speed (km/s)
/
Latitude / Longitude
Inclination (degrees)
Orbital Period (minutes)
Azimuth
Elevation
Range (km)
Doppler Factor

Next 0 passes for location: London (51.5072 / 0.1276)

Sorry there are no passes over London.